{"data":{"norad_id":51720,"epoch":"2026-09-20T00:15:40.849344Z","epoch_age_seconds":90707,"freshness":"FRESH","line1":"1 51720U 22016G   26263.01088946  .00000309  00000+0  21705-4 0  9991","line2":"2 51720  53.1604 162.1878 0001351  82.6778 277.4377 15.31708397252951","mean_motion":15.31708397,"eccentricity":0.0001351,"inclination_deg":53.1604,"raan_deg":162.1878,"arg_perigee_deg":82.6778,"mean_anomaly_deg":277.4377,"bstar":2.1705e-5,"rev_number":25295,"period_min":94.012672570078,"perigee_km":469.78968441956,"apogee_km":471.64024422032,"semimajor_km":6848.8519643199,"source":"CELESTRAK","updated_at":"2026-09-20T09:00:39.598295Z"}}